Location: Newark
(39.0622°N, 106.5590°E)
Time: 21:51:36
(UTC+00:00)

Transit 2A - Visible Passes

Search period start: 26 January 2020 00:00
Search period end: 05 February 2020 00:00
Orbit: 601 x 958 km, 66.7° (Epoch: 26 January)

Date Brightness Start Highest point End Pass type
(mag) Time Alt. Az. Time Alt. Az. Time Alt. Az.
26 Jan 6.1 12:16:36 10° SSW 12:19:56 50° SSW 12:19:56 50° SSW visible
26 Jan 7.4 21:09:45 33° ESE 21:09:45 33° ESE 21:12:59 10° SE visible
26 Jan 7.3 22:50:18 19° WSW 22:50:40 19° WSW 22:54:24 10° SSW visible
27 Jan 5.7 11:42:39 10° S 11:46:58 51° ESE 11:47:37 46° E visible
27 Jan 8.6 13:27:36 10° W 13:28:10 12° W 13:28:10 12° W visible
27 Jan 8.6 20:37:25 15° ESE 20:37:25 15° ESE 20:38:25 10° ESE visible
27 Jan 7.2 22:17:59 26° SW 22:17:59 26° SW 22:21:16 10° S visible
28 Jan 6.3 11:09:00 10° S 11:12:57 31° ESE 11:15:15 19° ENE visible
28 Jan 7.6 12:52:31 10° WSW 12:55:48 23° WNW 12:55:48 23° WNW visible
28 Jan 7.7 21:45:44 21° S 21:45:44 21° S 21:47:45 10° S visible
29 Jan 7.0 10:35:44 10° SSE 10:38:57 20° ESE 10:42:08 10° ENE visible
29 Jan 6.9 12:17:46 10° WSW 12:21:49 35° NW 12:23:22 27° NNW visible
29 Jan 8.5 21:13:32 12° SSE 21:13:32 12° SSE 21:13:56 10° SSE visible
30 Jan 6.1 11:43:18 10° SW 11:47:38 55° WNW 11:50:51 17° NNE visible
31 Jan 5.5 11:09:04 10° SSW 11:13:29 89° WNW 11:17:51 10° NNE visible
31 Jan 8.5 12:56:36 10° NW 12:57:18 10° NW 12:57:59 10° NNW visible
01 Feb 5.7 10:35:04 10° SSW 10:39:24 56° ESE 10:43:40 10° NE visible
01 Feb 8.2 12:20:20 10° W 12:22:53 15° NW 12:25:27 10° N visible
02 Feb 7.8 11:45:09 10° WSW 11:48:33 22° NW 11:51:58 10° N visible
03 Feb 7.2 11:10:21 10° WSW 11:14:17 32° NW 11:18:13 10° N visible
